Miscellaneous Local Product
Issued by NWS North Platte, NE

Home | Current Version | Previous Version | Text Only | Print | Product List | Glossary On
Versions: 1 2 3 4 5 6 7 8 9 10 11 12 13 14 15 16 17 18 19 20 21 22 23 24 25 26 27 28 29 30 31 32 33 34 35 36 37 38 39 40 41 42 43 44 45 46 47 48 49 50
000
AXUS43 KLBF 010610
MISLBF


WESTERN AND NORTH CENTRAL NEBRASKA HOURLY WEATHER ROUNDUP
NATIONAL WEATHER SERVICE NORTH PLATTE NE
100 AM CDT SUN MAY 01 2016

NOTE: "FAIR" INDICATES FEW OR NO CLOUDS BELOW 12,000 FEET WITH NO
SIGNIFICANT WEATHER AND/OR OBSTRUCTIONS TO VISIBILITY.

NOTE: STATIONS NOT REPORTING VARIABLES SUCH AS SKY/WEATHER OR
PRESSURE ARE PROVIDED BY RAWS AND APRS NETWORKS AND ARE NOT UNDER
NATIONAL WEATHER SERVICE QUALITY CONTROL.

...OBSERVATIONS IN AND NEAR THE EASTERN PANHANDLE OF NEBRASKA...

CITY           SKY/WX    TMP DP  RH WIND       PRES   REMARKS
PINE RIDGE     LGT RAIN  39  37  92 CALM      30.19R
CHADRON        LGT RAIN  41  37  86 CALM      30.21R
ALLIANCE       MIX PCPN  34  33  96 N14       30.16R WCI  25
SIDNEY         LGT SNOW  34  32  92 N22       30.14R FOG     WCI  22
CRESCENT LAKE    N/A     33  32  98 N13G20      N/A  WCI  24
BIG SPRINGS      N/A     34  33  95 N9          N/A  WCI  27
$$

...OBSERVATIONS IN NORTHERN NEBRASKA AND FAR SOUTHERN SOUTH DAKOTA...

CITY           SKY/WX    TMP DP  RH WIND       PRES   REMARKS
WINNER         LGT RAIN  43  40  89 N6        30.15R
VALENTINE      LGT RAIN  39  35  86 NE17G25   30.14R WCI  30
THEDFORD       CLOUDY    36  35  98 N16G22    30.08R WCI  26
AINSWORTH      DRIZZLE   39  38  97 NE22G31   30.10R WCI  29
O`NEILL        LGT RAIN  42  40  94 NE21      30.05R
ORD            LGT RAIN  41  38  89 NE17G26   29.98R
BROKEN BOW     LGT RAIN  40  37  89 NE20G31   29.99R FOG     WCI  30
VALENTINE NWR    N/A     37  36  97 NE14G24     N/A  WCI  28
BUTTE            N/A     41  40  95 NE14        N/A
HALSEY           N/A     33  33  99 N8G15       N/A  WCI  26
CHAMBERS         N/A     41  40  98 E15         N/A
EWING            N/A     42  41  96 NE9G16      N/A
$$

...OBSERVATIONS IN SOUTHWEST NEBRASKA AND FAR NORTHEAST COLORADO...

CITY           SKY/WX    TMP DP  RH WIND       PRES   REMARKS
HOLYOKE        LGT RAIN  36  34  93 N18G24    30.10R WCI  25
IMPERIAL       CLOUDY    35  33  92 N18       30.07R FOG     WCI  24
OGALLALA       DRIZZLE   36  33  88 N21G26    30.08R WCI  25
NORTH PLATTE   LGT SNOW  33  32  96 N14       30.03R FOG     WCI  23
MCCOOK         CLOUDY    38  35  89 N20       29.99S WCI  28
LEXINGTON      LGT RAIN  41  38  89 N18G25    29.97R
PAXTON           N/A     35  34  95 N14         N/A  WCI  26
STAPLETON        N/A     32  32  99 MISG        N/A
GOTHENBURG       N/A     38  35  88 NW12        N/A  WCI  30
CALLAWAY         N/A     35  34  96 N12         N/A  WCI  27
$$

...OBSERVATIONS IN CENTRAL LINCOLN COUNTY AREA...

CITY           SKY/WX    TMP DP  RH WIND       PRES   REMARKS
N.P. AIRPORT   LGT SNOW  33  32  96 N14       30.03R FOG     WCI  23
N.P. DOWNTOWN    N/A     33  33 100 N8          N/A  WCI  26
N.P. HILLCREST   N/A     33  33 100 NE17        N/A  WCI  22
$$

...SOME OBSERVATIONS FROM AROUND THE REGION...

CITY           SKY/WX    TMP DP  RH WIND       PRES   REMARKS
DENVER         LGT SNOW  33  30  88 NW14      30.21R WCI  23
LARAMIE        FLURRIES  28  25  88 N10       30.20R WCI  19
CHEYENNE       LGT SNOW  31  29  92 N10       30.19R FOG     WCI  22
SCOTTSBLUFF    LGT RAIN  37  34  89 N10       30.21R WCI  30
RAPID CITY     CLOUDY    41  32  70 N10       30.24R
BISMARCK       CLEAR     40  32  73 N6        30.28R
PIERRE         CLOUDY    41  34  76 N12       30.16R
SIOUX FALLS    CLOUDY    44  41  89 NE10      30.09R
OMAHA          DRIZZLE   48  46  93 NE10G16   29.91R
GRAND ISLAND   LGT RAIN  43  42  97 N18       29.92R FOG
KANSAS CITY    CLOUDY    54  47  77 W6        29.88R
WICHITA        CLEAR     48  41  76 W8        29.94R
OKLAHOMA CITY  CLEAR     53  45  74 N7        29.96S
DALLAS         CLEAR     65  57  75 N7        29.89S
AMARILLO       CLOUDY    44  34  67 N21       30.07S
DODGE CITY     CLEAR     38  33  82 NW16      30.01R WCI  29
HAYS           CLOUDY    43  32  65 NW8G16    29.96R
GOODLAND       CLOUDY    35  33  92 N22G32    30.02R WCI  23
$$




USA.gov is the U.S. government's official web portal to all federal, state and local government web resources and services.